Year,Month,Day,Hour,Minute,Value (Times are PST for temperature in C)
2016,04,17,00,00,9.60
2016,04,17,00,01,9.60
2016,04,17,00,02,9.60
2016,04,17,00,03,9.60
2016,04,17,00,04,9.50
2016,04,17,00,05,9.50
2016,04,17,00,06,9.50
2016,04,17,00,07,9.50
2016,04,17,00,08,9.40
2016,04,17,00,09,9.40
2016,04,17,00,10,9.40
2016,04,17,00,11,9.40
2016,04,17,00,12,9.30
2016,04,17,00,13,9.30
2016,04,17,00,14,9.30
2016,04,17,00,15,9.30
2016,04,17,00,16,9.30
2016,04,17,00,17,9.20
2016,04,17,00,18,9.20
2016,04,17,00,19,9.20
2016,04,17,00,20,9.20
2016,04,17,00,21,9.20
2016,04,17,00,22,9.10
2016,04,17,00,23,9.10
2016,04,17,00,24,9.10
2016,04,17,00,25,9.10
2016,04,17,00,26,9.10
2016,04,17,00,27,9.10
2016,04,17,00,28,9.10
2016,04,17,00,29,9.10
2016,04,17,00,30,9.10
2016,04,17,00,31,9.10
2016,04,17,00,32,9.00
2016,04,17,00,33,9.00
2016,04,17,00,34,9.00
2016,04,17,00,35,8.90
2016,04,17,00,36,8.90
2016,04,17,00,37,8.90
2016,04,17,00,38,8.90
2016,04,17,00,39,8.80
2016,04,17,00,40,8.80
2016,04,17,00,41,8.80
2016,04,17,00,42,8.80
2016,04,17,00,43,8.80
2016,04,17,00,44,8.80
2016,04,17,00,45,8.80
2016,04,17,00,46,8.80
2016,04,17,00,47,8.80
2016,04,17,00,48,8.80
2016,04,17,00,49,8.70
2016,04,17,00,50,8.70
2016,04,17,00,51,8.70
2016,04,17,00,52,8.70
2016,04,17,00,53,8.70
2016,04,17,00,54,8.70
2016,04,17,00,55,8.70
2016,04,17,00,56,8.60
2016,04,17,00,57,8.60
2016,04,17,00,58,8.60
2016,04,17,00,59,8.60
2016,04,17,01,00,8.60
2016,04,17,01,01,8.50
2016,04,17,01,02,8.50
2016,04,17,01,03,8.50
2016,04,17,01,04,8.50
2016,04,17,01,05,8.50
2016,04,17,01,06,8.50
2016,04,17,01,07,8.40
2016,04,17,01,08,8.40
2016,04,17,01,09,8.40
2016,04,17,01,10,8.40
2016,04,17,01,11,8.40
2016,04,17,01,12,8.40
2016,04,17,01,13,8.40
2016,04,17,01,14,8.30
2016,04,17,01,15,8.30
2016,04,17,01,16,8.30
2016,04,17,01,17,8.30
2016,04,17,01,18,8.30
2016,04,17,01,19,8.20
2016,04,17,01,20,8.20
2016,04,17,01,21,8.20
2016,04,17,01,22,8.20
2016,04,17,01,23,8.20
2016,04,17,01,24,8.20
2016,04,17,01,25,8.20
2016,04,17,01,26,8.10
2016,04,17,01,27,8.10
2016,04,17,01,28,8.10
2016,04,17,01,29,8.10
2016,04,17,01,30,8.10
2016,04,17,01,31,8.10
2016,04,17,01,32,8.10
2016,04,17,01,33,8.00
2016,04,17,01,34,8.00
2016,04,17,01,35,8.00
2016,04,17,01,36,8.00
2016,04,17,01,37,7.90
2016,04,17,01,38,7.90
2016,04,17,01,39,7.90
2016,04,17,01,40,7.90
2016,04,17,01,41,7.90
2016,04,17,01,42,7.90
2016,04,17,01,43,7.90
2016,04,17,01,44,7.90
2016,04,17,01,45,7.80
2016,04,17,01,46,7.80
2016,04,17,01,47,7.80
2016,04,17,01,48,7.80
2016,04,17,01,49,7.80
2016,04,17,01,50,7.80
2016,04,17,01,51,7.70
2016,04,17,01,52,7.70
2016,04,17,01,53,7.70
2016,04,17,01,54,7.70
2016,04,17,01,55,7.70
2016,04,17,01,56,7.70
2016,04,17,01,57,7.70
2016,04,17,01,58,7.70
2016,04,17,01,59,7.70
2016,04,17,02,00,7.70
2016,04,17,02,01,7.70
2016,04,17,02,02,7.70
2016,04,17,02,03,7.70
2016,04,17,02,04,7.70
2016,04,17,02,05,7.60
2016,04,17,02,06,7.60
2016,04,17,02,07,7.60
2016,04,17,02,08,7.60
2016,04,17,02,09,7.60
2016,04,17,02,10,7.60
2016,04,17,02,11,7.60
2016,04,17,02,12,7.60
2016,04,17,02,13,7.60
2016,04,17,02,14,7.60
2016,04,17,02,15,7.60
2016,04,17,02,16,7.60
2016,04,17,02,17,7.60
2016,04,17,02,18,7.60
2016,04,17,02,19,7.60
2016,04,17,02,20,7.60
2016,04,17,02,21,7.60
2016,04,17,02,22,7.50
2016,04,17,02,23,7.50
2016,04,17,02,24,7.50
2016,04,17,02,25,7.40
2016,04,17,02,26,7.40
2016,04,17,02,27,7.40
2016,04,17,02,28,7.40
2016,04,17,02,29,7.40
2016,04,17,02,30,7.30
2016,04,17,02,31,7.30
2016,04,17,02,32,7.30
2016,04,17,02,33,7.30
2016,04,17,02,34,7.30
2016,04,17,02,35,7.20
2016,04,17,02,36,7.20
2016,04,17,02,37,7.20
2016,04,17,02,38,7.20
2016,04,17,02,39,7.20
2016,04,17,02,40,7.30
2016,04,17,02,41,7.30
2016,04,17,02,42,7.30
2016,04,17,02,43,7.30
2016,04,17,02,44,7.20
2016,04,17,02,45,7.20
2016,04,17,02,46,7.20
2016,04,17,02,47,7.20
2016,04,17,02,48,7.20
2016,04,17,02,49,7.10
2016,04,17,02,50,7.10
2016,04,17,02,51,7.10
2016,04,17,02,52,7.10
2016,04,17,02,53,7.10
2016,04,17,02,54,7.10
2016,04,17,02,55,7.10
2016,04,17,02,56,7.10
2016,04,17,02,57,7.10
2016,04,17,02,58,7.10
2016,04,17,02,59,7.10
2016,04,17,03,00,7.00
2016,04,17,03,01,7.00
2016,04,17,03,02,7.00
2016,04,17,03,03,7.00
2016,04,17,03,04,7.00
2016,04,17,03,05,7.00
2016,04,17,03,06,7.00
2016,04,17,03,07,6.90
2016,04,17,03,08,6.90
2016,04,17,03,09,6.90
2016,04,17,03,10,6.90
2016,04,17,03,11,6.90
2016,04,17,03,12,6.90
2016,04,17,03,13,6.90
2016,04,17,03,14,6.90
2016,04,17,03,15,7.00
2016,04,17,03,16,7.00
2016,04,17,03,17,7.00
2016,04,17,03,18,6.90
2016,04,17,03,19,6.90
2016,04,17,03,20,6.90
2016,04,17,03,21,6.90
2016,04,17,03,22,6.90
2016,04,17,03,23,6.90
2016,04,17,03,24,6.90
2016,04,17,03,25,6.90
2016,04,17,03,26,6.90
2016,04,17,03,27,6.90
2016,04,17,03,28,6.90
2016,04,17,03,29,6.90
2016,04,17,03,30,6.90
2016,04,17,03,31,6.90
2016,04,17,03,32,6.90
2016,04,17,03,33,6.90
2016,04,17,03,34,6.80
2016,04,17,03,35,6.80
2016,04,17,03,36,6.80
2016,04,17,03,37,6.80
2016,04,17,03,38,6.80
2016,04,17,03,39,6.80
2016,04,17,03,40,6.80
2016,04,17,03,41,6.80
2016,04,17,03,42,6.70
2016,04,17,03,43,6.70
2016,04,17,03,44,6.70
2016,04,17,03,45,6.70
2016,04,17,03,46,6.70
2016,04,17,03,47,6.70
2016,04,17,03,48,6.60
2016,04,17,03,49,6.60
2016,04,17,03,50,6.60
2016,04,17,03,51,6.60
2016,04,17,03,52,6.60
2016,04,17,03,53,6.60
2016,04,17,03,54,6.60
2016,04,17,03,55,6.60
2016,04,17,03,56,6.60
2016,04,17,03,57,6.60
2016,04,17,03,58,6.60
2016,04,17,03,59,6.50
2016,04,17,04,00,6.50
2016,04,17,04,01,6.50
2016,04,17,04,02,6.50
2016,04,17,04,03,6.50
2016,04,17,04,04,6.40
2016,04,17,04,05,6.40
2016,04,17,04,06,6.40
2016,04,17,04,07,6.40
2016,04,17,04,08,6.40
2016,04,17,04,09,6.40
2016,04,17,04,10,6.40
2016,04,17,04,11,6.40
2016,04,17,04,12,6.40
2016,04,17,04,13,6.40
2016,04,17,04,14,6.40
2016,04,17,04,15,6.40
2016,04,17,04,16,6.40
2016,04,17,04,17,6.40
2016,04,17,04,18,6.40
2016,04,17,04,19,6.40
2016,04,17,04,20,6.40
2016,04,17,04,21,6.40
2016,04,17,04,22,6.40
2016,04,17,04,23,6.40
2016,04,17,04,24,6.40
2016,04,17,04,25,6.50
2016,04,17,04,26,6.50
2016,04,17,04,27,6.50
2016,04,17,04,28,6.50
2016,04,17,04,29,6.50
2016,04,17,04,30,6.50
2016,04,17,04,31,6.40
2016,04,17,04,32,6.40
2016,04,17,04,33,6.40
2016,04,17,04,34,6.40
2016,04,17,04,35,6.40
2016,04,17,04,36,6.40
2016,04,17,04,37,6.40
2016,04,17,04,38,6.40
2016,04,17,04,39,6.40
2016,04,17,04,40,6.40
2016,04,17,04,41,6.40
2016,04,17,04,42,6.40
2016,04,17,04,43,6.40
2016,04,17,04,44,6.30
2016,04,17,04,45,6.30
2016,04,17,04,46,6.30
2016,04,17,04,47,6.30
2016,04,17,04,48,6.30
2016,04,17,04,49,6.30
2016,04,17,04,50,6.30
2016,04,17,04,51,6.30
2016,04,17,04,52,6.30
2016,04,17,04,53,6.20
2016,04,17,04,54,6.20
2016,04,17,04,55,6.20
2016,04,17,04,56,6.20
2016,04,17,04,57,6.10
2016,04,17,04,58,6.10
2016,04,17,04,59,6.10
2016,04,17,05,00,6.10
2016,04,17,05,01,6.00
2016,04,17,05,02,6.00
2016,04,17,05,03,6.00
2016,04,17,05,04,6.00
2016,04,17,05,05,5.90
2016,04,17,05,06,5.90
2016,04,17,05,07,5.90
2016,04,17,05,08,5.90
2016,04,17,05,09,5.90
2016,04,17,05,10,5.90
2016,04,17,05,11,5.90
2016,04,17,05,12,5.80
2016,04,17,05,13,5.80
2016,04,17,05,14,5.80
2016,04,17,05,15,5.80
2016,04,17,05,16,5.80
2016,04,17,05,17,5.80
2016,04,17,05,18,5.80
2016,04,17,05,19,5.90
2016,04,17,05,20,5.90
2016,04,17,05,21,5.80
2016,04,17,05,22,5.80
2016,04,17,05,23,5.80
2016,04,17,05,24,5.80
2016,04,17,05,25,5.80
2016,04,17,05,26,5.80
2016,04,17,05,27,5.80
2016,04,17,05,28,5.80
2016,04,17,05,29,5.80
2016,04,17,05,30,5.70
2016,04,17,05,31,5.70
2016,04,17,05,32,5.70
2016,04,17,05,33,5.70
2016,04,17,05,34,5.70
2016,04,17,05,35,5.70
2016,04,17,05,36,5.70
2016,04,17,05,37,5.70
2016,04,17,05,38,5.70
2016,04,17,05,39,5.70
2016,04,17,05,40,5.70
2016,04,17,05,41,5.70
2016,04,17,05,42,5.70
2016,04,17,05,43,5.70
2016,04,17,05,44,5.70
2016,04,17,05,45,5.70
2016,04,17,05,46,5.70
2016,04,17,05,47,5.80
2016,04,17,05,48,5.80
2016,04,17,05,49,5.80
2016,04,17,05,50,5.80
2016,04,17,05,51,5.80
2016,04,17,05,52,5.80
2016,04,17,05,53,5.80
2016,04,17,05,54,5.80
2016,04,17,05,55,5.80
2016,04,17,05,56,5.80
2016,04,17,05,57,5.80
2016,04,17,05,58,5.80
2016,04,17,05,59,5.80
2016,04,17,06,00,5.80
2016,04,17,06,01,5.70
2016,04,17,06,02,5.70
2016,04,17,06,03,5.70
2016,04,17,06,04,5.70
2016,04,17,06,05,5.70
2016,04,17,06,06,5.60
2016,04,17,06,07,5.60
2016,04,17,06,08,5.60
2016,04,17,06,09,5.60
2016,04,17,06,10,5.60
2016,04,17,06,11,5.50
2016,04,17,06,12,5.50
2016,04,17,06,13,5.50
2016,04,17,06,14,5.40
2016,04,17,06,15,5.40
2016,04,17,06,16,5.40
2016,04,17,06,17,5.50
2016,04,17,06,18,5.50
2016,04,17,06,19,5.50
2016,04,17,06,20,5.50
2016,04,17,06,21,5.50
2016,04,17,06,22,5.50
2016,04,17,06,23,5.50
2016,04,17,06,24,5.40
2016,04,17,06,25,5.40
2016,04,17,06,26,5.40
2016,04,17,06,27,5.50
2016,04,17,06,28,5.50
2016,04,17,06,29,5.50
2016,04,17,06,30,5.50
2016,04,17,06,31,5.50
2016,04,17,06,32,5.50
2016,04,17,06,33,5.50
2016,04,17,06,34,5.50
2016,04,17,06,35,5.50
2016,04,17,06,36,5.50
2016,04,17,06,37,5.50
2016,04,17,06,38,5.50
2016,04,17,06,39,5.50
2016,04,17,06,40,5.50
2016,04,17,06,41,5.50
2016,04,17,06,42,5.50
2016,04,17,06,43,5.60
2016,04,17,06,44,5.60
2016,04,17,06,45,5.60
2016,04,17,06,46,5.60
2016,04,17,06,47,5.60
2016,04,17,06,48,5.60
2016,04,17,06,49,5.60
2016,04,17,06,50,5.60
2016,04,17,06,51,5.60
2016,04,17,06,52,5.60
2016,04,17,06,53,5.60
2016,04,17,06,54,5.60
2016,04,17,06,55,5.60
2016,04,17,06,56,5.60
2016,04,17,06,57,5.60
2016,04,17,06,58,5.60
2016,04,17,06,59,5.60
2016,04,17,07,00,5.60
2016,04,17,07,01,5.60
2016,04,17,07,02,5.60
2016,04,17,07,03,5.60
2016,04,17,07,04,5.70
2016,04,17,07,05,5.70
2016,04,17,07,06,5.70
2016,04,17,07,07,5.80
2016,04,17,07,08,5.80
2016,04,17,07,09,5.90
2016,04,17,07,10,5.90
2016,04,17,07,11,6.00
2016,04,17,07,12,6.00
2016,04,17,07,13,6.10
2016,04,17,07,14,6.10
2016,04,17,07,15,6.10
2016,04,17,07,16,6.20
2016,04,17,07,17,6.20
2016,04,17,07,18,6.20
2016,04,17,07,19,6.30
2016,04,17,07,20,6.30
2016,04,17,07,21,6.30
2016,04,17,07,22,6.40
2016,04,17,07,23,6.40
2016,04,17,07,24,6.40
2016,04,17,07,25,6.50
2016,04,17,07,26,6.50
2016,04,17,07,27,6.60
2016,04,17,07,28,6.60
2016,04,17,07,29,6.60
2016,04,17,07,30,6.70
2016,04,17,07,31,6.70
2016,04,17,07,32,6.70
2016,04,17,07,33,6.80
2016,04,17,07,34,6.80
2016,04,17,07,35,6.80
2016,04,17,07,36,6.80
2016,04,17,07,37,6.80
2016,04,17,07,38,6.80
2016,04,17,07,39,6.90
2016,04,17,07,40,6.90
2016,04,17,07,41,6.90
2016,04,17,07,42,6.90
2016,04,17,07,43,6.90
2016,04,17,07,44,7.00
2016,04,17,07,45,7.10
2016,04,17,07,46,7.10
2016,04,17,07,47,7.10
2016,04,17,07,48,7.20
2016,04,17,07,49,7.20
2016,04,17,07,50,7.20
2016,04,17,07,51,7.30
2016,04,17,07,52,7.30
2016,04,17,07,53,7.30
2016,04,17,07,54,7.40
2016,04,17,07,55,7.40
2016,04,17,07,56,7.40
2016,04,17,07,57,7.50
2016,04,17,07,58,7.50
2016,04,17,07,59,7.60
2016,04,17,08,00,7.60
2016,04,17,08,01,7.60
2016,04,17,08,02,7.70
2016,04,17,08,03,7.70
2016,04,17,08,04,7.70
2016,04,17,08,05,7.80
2016,04,17,08,06,7.80
2016,04,17,08,07,7.80
2016,04,17,08,08,7.90
2016,04,17,08,09,7.90
2016,04,17,08,10,7.90
2016,04,17,08,11,8.00
2016,04,17,08,12,8.00
2016,04,17,08,13,8.00
2016,04,17,08,14,8.10
2016,04,17,08,15,8.10
2016,04,17,08,16,8.20
2016,04,17,08,17,8.20
2016,04,17,08,18,8.20
2016,04,17,08,19,8.30
2016,04,17,08,20,8.30
2016,04,17,08,21,8.40
2016,04,17,08,22,8.40
2016,04,17,08,23,8.40
2016,04,17,08,24,8.40
2016,04,17,08,25,8.50
2016,04,17,08,26,8.50
2016,04,17,08,27,8.50
2016,04,17,08,28,8.60
2016,04,17,08,29,8.60
2016,04,17,08,30,8.70
2016,04,17,08,31,8.70
2016,04,17,08,32,8.70
2016,04,17,08,33,8.80
2016,04,17,08,34,8.80
2016,04,17,08,35,8.90
2016,04,17,08,36,8.90
2016,04,17,08,37,9.00
2016,04,17,08,38,9.00
2016,04,17,08,39,9.10
2016,04,17,08,40,9.10
2016,04,17,08,41,9.20
2016,04,17,08,42,9.20
2016,04,17,08,43,9.20
2016,04,17,08,44,9.30
2016,04,17,08,45,9.30
2016,04,17,08,46,9.30
2016,04,17,08,47,9.40
2016,04,17,08,48,9.50
2016,04,17,08,49,9.50
2016,04,17,08,50,9.60
2016,04,17,08,51,9.60
2016,04,17,08,52,9.70
2016,04,17,08,53,9.70
2016,04,17,08,54,9.70
2016,04,17,08,55,9.80
2016,04,17,08,56,9.80
2016,04,17,08,57,9.90
2016,04,17,08,58,10.00
2016,04,17,08,59,10.10
2016,04,17,09,00,10.10
2016,04,17,09,01,10.20
2016,04,17,09,02,10.30
2016,04,17,09,03,10.40
2016,04,17,09,04,10.40
2016,04,17,09,05,10.50
2016,04,17,09,06,10.60
2016,04,17,09,07,10.60
2016,04,17,09,08,10.70
2016,04,17,09,09,10.80
2016,04,17,09,10,10.90
2016,04,17,09,11,11.00
2016,04,17,09,12,11.10
2016,04,17,09,13,11.10
2016,04,17,09,14,11.20
2016,04,17,09,15,11.20
2016,04,17,09,16,11.30
2016,04,17,09,17,11.30
2016,04,17,09,18,11.40
2016,04,17,09,19,11.50
2016,04,17,09,20,11.60
2016,04,17,09,21,11.70
2016,04,17,09,22,11.70
2016,04,17,09,23,11.80
2016,04,17,09,24,11.80
2016,04,17,09,25,11.80
2016,04,17,09,26,11.90
2016,04,17,09,27,11.90
2016,04,17,09,28,11.90
2016,04,17,09,29,12.00
2016,04,17,09,30,12.00
2016,04,17,09,31,12.10
2016,04,17,09,32,12.10
2016,04,17,09,33,12.20
2016,04,17,09,34,12.20
2016,04,17,09,35,12.30
2016,04,17,09,36,12.30
2016,04,17,09,37,12.40
2016,04,17,09,38,12.50
2016,04,17,09,39,12.60
2016,04,17,09,40,12.60
2016,04,17,09,41,12.70
2016,04,17,09,42,12.70
2016,04,17,09,43,12.80
2016,04,17,09,44,12.80
2016,04,17,09,45,12.90
2016,04,17,09,46,13.00
2016,04,17,09,47,13.10
2016,04,17,09,48,13.20
2016,04,17,09,49,13.30
2016,04,17,09,50,13.30
2016,04,17,09,51,13.40
2016,04,17,09,52,13.40
2016,04,17,09,53,13.50
2016,04,17,09,54,13.50
2016,04,17,09,55,13.60
2016,04,17,09,56,13.70
2016,04,17,09,57,13.70
2016,04,17,09,58,13.80
2016,04,17,09,59,13.90
2016,04,17,10,00,14.00
2016,04,17,10,01,14.10
2016,04,17,10,02,14.10
2016,04,17,10,03,14.20
2016,04,17,10,04,14.20
2016,04,17,10,05,14.30
2016,04,17,10,06,14.30
2016,04,17,10,07,14.30
2016,04,17,10,08,14.30
2016,04,17,10,09,14.30
2016,04,17,10,10,14.40
2016,04,17,10,11,14.40
2016,04,17,10,12,14.50
2016,04,17,10,13,14.60
2016,04,17,10,14,14.70
2016,04,17,10,15,14.70
2016,04,17,10,16,14.70
2016,04,17,10,17,14.80
2016,04,17,10,18,14.90
2016,04,17,10,19,15.00
2016,04,17,10,20,15.10
2016,04,17,10,21,15.20
2016,04,17,10,22,15.30
2016,04,17,10,23,15.30
2016,04,17,10,24,15.30
2016,04,17,10,25,15.40
2016,04,17,10,26,15.40
2016,04,17,10,27,15.50
2016,04,17,10,28,15.60
2016,04,17,10,29,15.70
2016,04,17,10,30,15.80
2016,04,17,10,31,15.80
2016,04,17,10,32,15.80
2016,04,17,10,33,15.80
2016,04,17,10,34,15.80
2016,04,17,10,35,15.80
2016,04,17,10,36,15.80
2016,04,17,10,37,15.80
2016,04,17,10,38,15.80
2016,04,17,10,39,15.80
2016,04,17,10,40,15.90
2016,04,17,10,41,15.90
2016,04,17,10,42,16.00
2016,04,17,10,43,16.00
2016,04,17,10,44,16.10
2016,04,17,10,45,16.10
2016,04,17,10,46,16.20
2016,04,17,10,47,16.20
2016,04,17,10,48,16.30
2016,04,17,10,49,16.30
2016,04,17,10,50,16.30
2016,04,17,10,51,16.30
2016,04,17,10,52,16.30
2016,04,17,10,53,16.30
2016,04,17,10,54,16.40
2016,04,17,10,55,16.40
2016,04,17,10,56,16.40
2016,04,17,10,57,16.40
2016,04,17,10,58,16.50
2016,04,17,10,59,16.50
2016,04,17,11,00,16.60
2016,04,17,11,01,16.60
2016,04,17,11,02,16.60
2016,04,17,11,03,16.70
2016,04,17,11,04,16.70
2016,04,17,11,05,16.80
2016,04,17,11,06,16.90
2016,04,17,11,07,17.00
2016,04,17,11,08,17.00
2016,04,17,11,09,17.10
2016,04,17,11,10,17.10
2016,04,17,11,11,17.10
2016,04,17,11,12,17.10
2016,04,17,11,13,17.10
2016,04,17,11,14,17.10
2016,04,17,11,15,17.20
2016,04,17,11,16,17.20
2016,04,17,11,17,17.20
2016,04,17,11,18,17.20
2016,04,17,11,19,17.30
2016,04,17,11,20,17.30
2016,04,17,11,21,17.30
2016,04,17,11,22,17.40
2016,04,17,11,23,17.40
2016,04,17,11,24,17.30
2016,04,17,11,25,17.30
2016,04,17,11,26,17.30
2016,04,17,11,27,17.20
2016,04,17,11,28,17.30
2016,04,17,11,29,17.30
2016,04,17,11,30,17.30
2016,04,17,11,31,17.40
2016,04,17,11,32,17.40
2016,04,17,11,33,17.50
2016,04,17,11,34,17.50
2016,04,17,11,35,17.50
2016,04,17,11,36,17.60
2016,04,17,11,37,17.60
2016,04,17,11,38,17.70
2016,04,17,11,39,17.70
2016,04,17,11,40,17.60
2016,04,17,11,41,17.60
2016,04,17,11,42,17.60
2016,04,17,11,43,17.50
2016,04,17,11,44,17.50
2016,04,17,11,45,17.50
2016,04,17,11,46,17.40
2016,04,17,11,47,17.40
2016,04,17,11,48,17.40
2016,04,17,11,49,17.40
2016,04,17,11,50,17.40
2016,04,17,11,51,17.40
2016,04,17,11,52,17.40
2016,04,17,11,53,17.40
2016,04,17,11,54,17.30
2016,04,17,11,55,17.20
2016,04,17,11,56,17.20
2016,04,17,11,57,17.20
2016,04,17,11,58,17.20
2016,04,17,11,59,17.30
2016,04,17,12,00,17.30
2016,04,17,12,01,17.40
2016,04,17,12,02,17.40
2016,04,17,12,03,17.50
2016,04,17,12,04,17.60
2016,04,17,12,05,17.60
2016,04,17,12,06,17.70
2016,04,17,12,07,17.80
2016,04,17,12,08,17.80
2016,04,17,12,09,17.90
2016,04,17,12,10,18.00
2016,04,17,12,11,18.00
2016,04,17,12,12,18.00
2016,04,17,12,13,17.90
2016,04,17,12,14,17.90
2016,04,17,12,15,17.90
2016,04,17,12,16,17.90
2016,04,17,12,17,17.90
2016,04,17,12,18,17.90
2016,04,17,12,19,18.00
2016,04,17,12,20,18.00
2016,04,17,12,21,18.10
2016,04,17,12,22,18.20
2016,04,17,12,23,18.30
2016,04,17,12,24,18.40
2016,04,17,12,25,18.40
2016,04,17,12,26,18.40
2016,04,17,12,27,18.50
2016,04,17,12,28,18.50
2016,04,17,12,29,18.60
2016,04,17,12,30,18.60
2016,04,17,12,31,18.60
2016,04,17,12,32,18.60
2016,04,17,12,33,18.60
2016,04,17,12,34,18.60
2016,04,17,12,35,18.60
2016,04,17,12,36,18.70
2016,04,17,12,37,18.70
2016,04,17,12,38,18.80
2016,04,17,12,39,18.90
2016,04,17,12,40,19.00
2016,04,17,12,41,19.10
2016,04,17,12,42,19.20
2016,04,17,12,43,19.40
2016,04,17,12,44,19.50
2016,04,17,12,45,19.60
2016,04,17,12,46,19.70
2016,04,17,12,47,19.80
2016,04,17,12,48,19.80
2016,04,17,12,49,19.80
2016,04,17,12,50,19.80
2016,04,17,12,51,19.80
2016,04,17,12,52,19.70
2016,04,17,12,53,19.60
2016,04,17,12,54,19.60
2016,04,17,12,55,19.60
2016,04,17,12,56,19.70
2016,04,17,12,57,19.70
2016,04,17,12,58,19.70
2016,04,17,12,59,19.80
2016,04,17,13,00,19.80
2016,04,17,13,01,19.80
2016,04,17,13,02,19.70
2016,04,17,13,03,19.70
2016,04,17,13,04,19.70
2016,04,17,13,05,19.80
2016,04,17,13,06,19.80
2016,04,17,13,07,19.70
2016,04,17,13,08,19.60
2016,04,17,13,09,19.60
2016,04,17,13,10,19.50
2016,04,17,13,11,19.50
2016,04,17,13,12,19.50
2016,04,17,13,13,19.60
2016,04,17,13,14,19.60
2016,04,17,13,15,19.60
2016,04,17,13,16,19.60
2016,04,17,13,17,19.60
2016,04,17,13,18,19.50
2016,04,17,13,19,19.50
2016,04,17,13,20,19.60
2016,04,17,13,21,19.60
2016,04,17,13,22,19.70
2016,04,17,13,23,19.80
2016,04,17,13,24,19.90
2016,04,17,13,25,19.90
2016,04,17,13,26,19.90
2016,04,17,13,27,19.90
2016,04,17,13,28,19.90
2016,04,17,13,29,19.90
2016,04,17,13,30,19.90
2016,04,17,13,31,19.90
2016,04,17,13,32,19.90
2016,04,17,13,33,20.00
2016,04,17,13,34,20.10
2016,04,17,13,35,20.20
2016,04,17,13,36,20.20
2016,04,17,13,37,20.20
2016,04,17,13,38,20.20
2016,04,17,13,39,20.10
2016,04,17,13,40,20.10
2016,04,17,13,41,20.10
2016,04,17,13,42,20.10
2016,04,17,13,43,20.10
2016,04,17,13,44,20.20
2016,04,17,13,45,20.20
2016,04,17,13,46,20.30
2016,04,17,13,47,20.40
2016,04,17,13,48,20.50
2016,04,17,13,49,20.60
2016,04,17,13,50,20.70
2016,04,17,13,51,20.70
2016,04,17,13,52,20.70
2016,04,17,13,53,20.80
2016,04,17,13,54,20.80
2016,04,17,13,55,20.70
2016,04,17,13,56,20.70
2016,04,17,13,57,20.60
2016,04,17,13,58,20.60
2016,04,17,13,59,20.60
2016,04,17,14,00,20.60
2016,04,17,14,01,20.60
2016,04,17,14,02,20.50
2016,04,17,14,03,20.50
2016,04,17,14,04,20.60
2016,04,17,14,05,20.60
2016,04,17,14,06,20.60
2016,04,17,14,07,20.60
2016,04,17,14,08,20.60
2016,04,17,14,09,20.70
2016,04,17,14,10,20.70
2016,04,17,14,11,20.70
2016,04,17,14,12,20.70
2016,04,17,14,13,20.60
2016,04,17,14,14,20.50
2016,04,17,14,15,20.50
2016,04,17,14,16,20.50
2016,04,17,14,17,20.40
2016,04,17,14,18,20.40
2016,04,17,14,19,20.30
2016,04,17,14,20,20.30
2016,04,17,14,21,20.30
2016,04,17,14,22,20.20
2016,04,17,14,23,20.10
2016,04,17,14,24,20.10
2016,04,17,14,25,20.10
2016,04,17,14,26,20.00
2016,04,17,14,27,20.10
2016,04,17,14,28,20.10
2016,04,17,14,29,20.10
2016,04,17,14,30,20.20
2016,04,17,14,31,20.30
2016,04,17,14,32,20.30
2016,04,17,14,33,20.30
2016,04,17,14,34,20.30
2016,04,17,14,35,20.20
2016,04,17,14,36,20.20
2016,04,17,14,37,20.20
2016,04,17,14,38,20.30
2016,04,17,14,39,20.30
2016,04,17,14,40,20.30
2016,04,17,14,41,20.40
2016,04,17,14,42,20.30
2016,04,17,14,43,20.40
2016,04,17,14,44,20.40
2016,04,17,14,45,20.40
2016,04,17,14,46,20.40
2016,04,17,14,47,20.30
2016,04,17,14,48,20.40
2016,04,17,14,49,20.40
2016,04,17,14,50,20.50
2016,04,17,14,51,20.60
2016,04,17,14,52,20.70
2016,04,17,14,53,20.70
2016,04,17,14,54,20.70
2016,04,17,14,55,20.70
2016,04,17,14,56,20.70
2016,04,17,14,57,20.80
2016,04,17,14,58,20.80
2016,04,17,14,59,20.90
2016,04,17,15,00,21.00
2016,04,17,15,01,21.00
2016,04,17,15,02,21.00
2016,04,17,15,03,21.00
2016,04,17,15,04,21.00
2016,04,17,15,05,21.10
2016,04,17,15,06,21.10
2016,04,17,15,07,21.20
2016,04,17,15,08,21.20
2016,04,17,15,09,21.20
2016,04,17,15,10,21.20
2016,04,17,15,11,21.20
2016,04,17,15,12,21.20
2016,04,17,15,13,21.30
2016,04,17,15,14,21.40
2016,04,17,15,15,21.50
2016,04,17,15,16,21.60
2016,04,17,15,17,21.70
2016,04,17,15,18,21.90
2016,04,17,15,19,21.90
2016,04,17,15,20,21.80
2016,04,17,15,21,21.80
2016,04,17,15,22,21.70
2016,04,17,15,23,21.70
2016,04,17,15,24,21.70
2016,04,17,15,25,21.70
2016,04,17,15,26,21.80
2016,04,17,15,27,21.90
2016,04,17,15,28,22.00
2016,04,17,15,29,22.20
2016,04,17,15,30,22.40
2016,04,17,15,31,22.50
2016,04,17,15,32,22.60
2016,04,17,15,33,22.50
2016,04,17,15,34,22.30
2016,04,17,15,35,22.20
2016,04,17,15,36,22.10
2016,04,17,15,37,21.90
2016,04,17,15,38,21.80
2016,04,17,15,39,21.80
2016,04,17,15,40,21.60
2016,04,17,15,41,21.50
2016,04,17,15,42,21.50
2016,04,17,15,43,21.50
2016,04,17,15,44,21.60
2016,04,17,15,45,21.60
2016,04,17,15,46,21.60
2016,04,17,15,47,21.60
2016,04,17,15,48,21.50
2016,04,17,15,49,21.50
2016,04,17,15,50,21.50
2016,04,17,15,51,21.60
2016,04,17,15,52,21.60
2016,04,17,15,53,21.60
2016,04,17,15,54,21.60
2016,04,17,15,55,21.60
2016,04,17,15,56,21.60
2016,04,17,15,57,21.60
2016,04,17,15,58,21.60
2016,04,17,15,59,21.60
2016,04,17,16,00,21.50
2016,04,17,16,01,21.50
2016,04,17,16,02,21.50
2016,04,17,16,03,21.60
2016,04,17,16,04,21.60
2016,04,17,16,05,21.70
2016,04,17,16,06,21.70
2016,04,17,16,07,21.70
2016,04,17,16,08,21.70
2016,04,17,16,09,21.70
2016,04,17,16,10,21.70
2016,04,17,16,11,21.70
2016,04,17,16,12,21.70
2016,04,17,16,13,21.70
2016,04,17,16,14,21.70
2016,04,17,16,15,21.70
2016,04,17,16,16,21.70
2016,04,17,16,17,21.60
2016,04,17,16,18,21.60
2016,04,17,16,19,21.50
2016,04,17,16,20,21.40
2016,04,17,16,21,21.30
2016,04,17,16,22,21.30
2016,04,17,16,23,21.30
2016,04,17,16,24,21.30
2016,04,17,16,25,21.30
2016,04,17,16,26,21.40
2016,04,17,16,27,21.40
2016,04,17,16,28,21.40
2016,04,17,16,29,21.40
2016,04,17,16,30,21.40
2016,04,17,16,31,21.40
2016,04,17,16,32,21.40
2016,04,17,16,33,21.30
2016,04,17,16,34,21.30
2016,04,17,16,35,21.20
2016,04,17,16,36,21.20
2016,04,17,16,37,21.10
2016,04,17,16,38,21.10
2016,04,17,16,39,21.10
2016,04,17,16,40,21.00
2016,04,17,16,41,21.10
2016,04,17,16,42,21.10
2016,04,17,16,43,21.10
2016,04,17,16,44,21.10
2016,04,17,16,45,21.00
2016,04,17,16,46,21.10
2016,04,17,16,47,21.00
2016,04,17,16,48,21.00
2016,04,17,16,49,21.00
2016,04,17,16,50,21.10
2016,04,17,16,51,21.10
2016,04,17,16,52,21.10
2016,04,17,16,53,21.10
2016,04,17,16,54,21.00
2016,04,17,16,55,21.00
2016,04,17,16,56,21.00
2016,04,17,16,57,21.00
2016,04,17,16,58,21.00
2016,04,17,16,59,21.00
2016,04,17,17,00,21.10
2016,04,17,17,01,21.10
2016,04,17,17,02,21.10
2016,04,17,17,03,21.10
2016,04,17,17,04,21.10
2016,04,17,17,05,21.10
2016,04,17,17,06,21.00
2016,04,17,17,07,21.00
2016,04,17,17,08,20.90
2016,04,17,17,09,20.90
2016,04,17,17,10,20.80
2016,04,17,17,11,20.80
2016,04,17,17,12,20.80
2016,04,17,17,13,20.80
2016,04,17,17,14,20.80
2016,04,17,17,15,20.80
2016,04,17,17,16,20.80
2016,04,17,17,17,20.80
2016,04,17,17,18,20.90
2016,04,17,17,19,20.90
2016,04,17,17,20,20.90
2016,04,17,17,21,21.00
2016,04,17,17,22,21.10
2016,04,17,17,23,21.10
2016,04,17,17,24,21.20
2016,04,17,17,25,21.20
2016,04,17,17,26,21.30
2016,04,17,17,27,21.30
2016,04,17,17,28,21.40
2016,04,17,17,29,21.40
2016,04,17,17,30,21.40
2016,04,17,17,31,21.40
2016,04,17,17,32,21.40
2016,04,17,17,33,21.40
2016,04,17,17,34,21.40
2016,04,17,17,35,21.40
2016,04,17,17,36,21.40
2016,04,17,17,37,21.40
2016,04,17,17,38,21.50
2016,04,17,17,39,21.50
2016,04,17,17,40,21.50
2016,04,17,17,41,21.60
2016,04,17,17,42,21.60